Tracking 31027 objects as of 19-Jul-2025
HD Live streaming from Space Station
objects crossing your sky now

STARLINK-32348

Track STARLINK-32348 now!
10-day predictions
STARLINK-32348 is classified as:


NORAD ID: 61631
Int'l Code: 2024-191L
Perigee: 489.4 km
Apogee: 491.0 km
Inclination: 43.0 °
Period: 94.3 minutes
Semi major axis: 6861 km
RCS: Unknown
Launch date: October 23, 2024
Source: United States (US)
Launch site: AIR FORCE EASTERN TEST RANGE (AFETR)
Your satellite tracking list
COSMOS 2251 DEB
Track 1 satellite(s)




NASA's NSSDC Master Catalog

Two Line Element Set (TLE):
1 61631U 24191L   25199.85645851  .00000923  00000-0  43076-4 0  9990
2 61631  43.0049  38.6220 0001116 264.2444  95.8281 15.27578061 42433
Source of the keplerian elements: AFSPC